Weather History for Texarkana, AR

Change the Weather History Date:

Saturday, June 7, 2014

  Actual Average Record
Temperature  
Mean Temperature 82 °F 77 °F  
Max Temperature 92 °F 87 °F 99 °F (1939)
Min Temperature 72 °F 67 °F 53 °F (2000)
Degree Days  
Heating Degree Days 0 0  
Month to date heating degree days 0 0  
Since 1 June heating degree days 0 0  
Since 1 July heating degree days 3040 2616  
Cooling Degree Days 17 12  
Month to date cooling degree days 104 80  
Year to date cooling degree days 398 400  
Since 1 June cooling degree days 104 80  
Growing Degree Days 32 (Base 50)    
Moisture  
Dew Point 70 °F    
Average Humidity 70    
Maximum Humidity 93    
Minimum Humidity 47    
Precipitation  
Precipitation 0.00 in 0.14 in 4.37 in (1974)
Month to date precipitation 0.29 0.99  
Year to date precipitation 15.18 21.61  
Snow  
Snow 0.00 in - - ()
Month to date snowfall 0.0  
Since 1 June snowfall 0.0  
Since 1 July snowfall 1.7  
Snow Depth 0.00 in    
Sea Level Pressure  
Sea Level Pressure 29.91 in    
Wind  
Wind Speed 8 mph (SSW)    
Max Wind Speed 17 mph    
Max Gust Speed 23 mph    
Visibility 10 miles    
Events      
T = Trace of Precipitation, MM = Missing Value Source: NWS Daily Summary

Daily Weather History Graph

Daily Weather History Graph

Search for Another Location

Airport:

Trip Planner

Search our weather history database for the weather conditions in past years. The results will help you decide how hot, cold, wet, or windy it might be!

Date:

Astronomy

Jun. 07, 2014 Rise Set
Actual Time 6:05 AM CDT 8:24 PM CDT
Civil Twilight 5:37 AM CDT 8:52 PM CDT
Nautical Twilight 5:02 AM CDT 9:27 PM CDT
Astronomical Twilight 4:23 AM CDT 10:06 PM CDT
Moon 2:57 PM CDT (6/7) 2:11 AM CDT (6/7)
Length of Visible Light 15h 15m
Length of Day
14h 18m
Waxing Gibbous, 68% of the Moon is Illuminated
Jun 7
Waxing Gibbous
Jun 12
Full
Jun 19
Last Quarter
Jun 27
New
Jul 5
First Quarter

Hourly Weather History & Observations

Time (CDT) Temp. Heat Index Dew Point Humidity Pressure Visibility Wind Dir Wind Speed Gust Speed Precip Events Conditions
12:53 AM 73.9 °F - 71.1 °F 91% 29.91 in 10.0 mi ESE 4.6 mph - N/A   Clear
1:53 AM 73.0 °F - 71.1 °F 93% 29.92 in 10.0 mi Calm Calm - N/A   Scattered Clouds
2:53 AM 73.0 °F - 71.1 °F 93% 29.94 in 10.0 mi Calm Calm - N/A   Mostly Cloudy
3:53 AM 73.0 °F - 71.1 °F 93% 29.94 in 10.0 mi Calm Calm - N/A   Mostly Cloudy
4:53 AM 73.0 °F - 71.1 °F 93% 29.93 in 9.0 mi SE 4.6 mph - N/A   Mostly Cloudy
5:53 AM 75.0 °F - 71.1 °F 87% 29.92 in 10.0 mi South 6.9 mph - N/A   Partly Cloudy
8:53 AM 79.0 °F - 72.0 °F 79% 29.94 in 10.0 mi South 9.2 mph - N/A   Clear
9:53 AM 82.9 °F 87.0 °F 70.0 °F 65% 29.95 in 10.0 mi SW 12.7 mph - N/A   Clear
10:53 AM 84.9 °F 88.8 °F 69.1 °F 59% 29.94 in 10.0 mi SW 11.5 mph - N/A   Clear
11:53 AM 87.1 °F 91.3 °F 69.1 °F 55% 29.93 in 10.0 mi SW 15.0 mph - N/A   Clear
12:53 PM 89.1 °F 93.7 °F 69.1 °F 52% 29.93 in 10.0 mi SW 12.7 mph 18.4 mph N/A   Clear
1:53 PM 91.0 °F 95.2 °F 68.0 °F 47% 29.91 in 10.0 mi WSW 13.8 mph 21.9 mph N/A   Partly Cloudy
2:53 PM 90.0 °F 94.5 °F 69.1 °F 50% 29.89 in 10.0 mi SSW 10.4 mph - N/A   Partly Cloudy
3:53 PM 90.0 °F 94.5 °F 69.1 °F 50% 29.87 in 10.0 mi SSW 11.5 mph 19.6 mph N/A   Partly Cloudy
4:53 PM 90.0 °F 93.6 °F 68.0 °F 48% 29.86 in 10.0 mi SSW 10.4 mph - N/A   Clear
5:53 PM 90.0 °F 94.5 °F 69.1 °F 50% 29.87 in 10.0 mi SW 10.4 mph - N/A   Clear
6:53 PM 89.1 °F 93.7 °F 69.1 °F 52% 29.87 in 10.0 mi SW 8.1 mph - N/A   Clear
7:53 PM 86.0 °F 91.5 °F 71.1 °F 61% 29.87 in 10.0 mi South 3.5 mph - N/A   Clear
8:53 PM 82.9 °F 88.0 °F 72.0 °F 69% 29.87 in 10.0 mi South 5.8 mph - N/A   Clear
9:53 PM 81.0 °F 85.2 °F 72.0 °F 74% 29.88 in 10.0 mi South 6.9 mph - N/A   Clear
10:53 PM 80.1 °F 83.8 °F 72.0 °F 76% 29.89 in 10.0 mi South 4.6 mph - N/A   Clear
11:53 PM 79.0 °F - 72.0 °F 79% 29.89 in 10.0 mi SSW 6.9 mph - N/A   Clear